Wind_Speed
8 5 6 6 8 8 7 8 10 10 9 10 12 15 17 18 20 22 22 23 25 26 26 26 26 27 26 26 27 31 35 36 36 38 37 34 32 33
9 8 6 5 7 10 9 8 8 10 13 17 17 16 16 16 19 21 24 27 29 29 27 25 28 29 30 28 29 32 35 37 38 40 40 38 36 36
11 9 9 8 9 10 11 11 12 14 13 14 17 18 18 20 21 21 22 24 28 28 27 28 28 28 28 29 31 32 35 37 40 41 41 41 40 39
13 11 11 12 12 13 14 13 13 15 19 19 15 19 21 22 25 25 25 24 27 30 28 28 27 29 29 30 31 33 35 37 39 40 42 41 42 39
12 14 15 15 17 17 16 17 16 17 18 20 23 18 21 24 23 24 26 29 28 28 30 30 31 31 30 31 32 33 35 38 39 39 41 41 43 40
12 13 16 16 19 21 20 20 18 17 19 19 23 27 27 24 25 26 29 30 35 32 34 33 32 31 32 32 33 33 34 36 37 41 44 44 46 42
10 12 15 17 19 23 25 26 27 25 24 24 25 29 34 34 30 29 33 33 35 33 35 36 35 37 33 33 33 32 32 32 35 38 42 42 43 43
7 8 11 14 16 21 25 28 31 31 29 28 30 31 37 40 40 39 39 40 43 44 37 44 41 39 40 36 34 33 33 33 35 38 39 40 40 44
7 9 10 11 14 18 20 23 26 31 33 34 33 35 38 41 44 44 45 48 50 52 52 50 42 42 38 37 32 33 31 32 33 36 36 38 40 40
12 12 12 16 16 17 21 24 27 29 31 35 36 38 40 44 47 51 58 55 58 62 61 61 48 38 33 38 32 31 31 32 31 33 35 38 39 39
18 20 20 21 20 22 26 27 31 29 35 35 39 42 46 50 51 55 53 61 60 60 60 59 57 38 33 37 34 30 31 30 29 31 34 36 38 38
24 23 24 23 25 27 32 34 32 30 36 41 43 45 48 51 51 48 54 57 61 60 61 63 61 53 39 38 39 27 29 30 29 29 32 36 38 39
29 29 32 32 33 35 36 40 38 39 41 44 47 49 50 50 53 58 56 53 59 66 56 47 47 58 40 31 38 27 26 29 29 28 32 36 38 38
32 33 36 38 39 41 42 42 45 50 53 50 51 50 53 57 59 66 65 53 60 59 56 49 45 32 31 30 28 34 24 26 28 28 30 34 37 38
36 39 41 43 45 46 47 48 52 56 56 56 55 55 55 58 64 66 70 58 67 71 57 48 41 32 27 24 29 26 24 24 27 26 29 32 36 39
44 44 46 48 48 50 54 54 54 56 57 58 59 59 57 57 65 68 77 63 69 53 36 39 30 33 29 23 27 25 22 24 26 26 27 31 36 38
48 50 52 55 60 58 58 60 59 61 64 63 64 64 59 59 61 66 62 78 66 47 42 37 36 31 26 25 25 21 22 25 26 25 27 29 34 38
51 52 55 57 60 60 61 61 61 63 67 70 72 70 66 61 64 64 71 71 59 35 44 31 28 34 24 25 21 18 22 24 26 25 26 29 33 37
58 58 57 57 59 62 64 64 64 67 70 72 72 72 70 67 63 64 66 67 49 47 47 28 28 22 23 23 17 18 22 24 26 25 25 28 32 36
61 64 64 64 65 66 65 66 63 58 58 62 66 72 74 77 72 64 61 55 42 41 42 30 26 18 22 22 19 21 22 25 25 25 26 28 31 35
66 66 66 66 64 63 62 61 53 49 54 62 68 76 81 85 59 71 72 50 35 32 26 29 21 21 23 21 21 23 22 26 25 24 26 28 30 35
67 67 67 62 58 60 57 53 48 52 57 62 64 56 48 54 61 54 62 49 43 26 31 27 24 21 23 23 23 22 25 25 25 25 26 28 29 33
70 69 61 58 58 59 56 49 49 52 56 48 57 43 55 49 51 27 33 31 25 26 24 22 22 21 24 26 22 23 26 25 26 26 27 27 31 34
Wind_Direction
313 326 339 347 342 348 350 359 358 351 339 330 346 358 352 351 353 0 356 352 349 348 349 348 343 347 340 342 339 340 343 342 343 343 343 340 330 323
297 302 295 297 308 318 324 332 333 325 331 337 343 351 346 344 343 347 352 352 352 339 333 341 343 341 340 338 336 336 340 341 345 344 343 340 333 331
259 268 277 289 296 296 303 314 331 333 331 331 331 337 335 336 335 335 340 345 354 357 350 350 344 338 337 338 336 336 338 344 346 345 344 339 336 338
266 268 277 284 288 285 294 314 325 325 328 327 330 330 334 330 324 327 334 341 347 355 356 355 347 341 338 338 334 336 340 342 347 346 342 339 340 339
271 263 270 285 296 304 308 308 310 313 312 318 321 330 337 338 325 330 328 328 330 333 342 349 348 339 338 336 337 338 339 339 345 345 345 344 342 339
273 265 270 280 290 299 302 300 300 304 299 305 312 320 324 329 329 320 320 322 325 327 328 334 335 336 339 335 335 336 336 341 345 347 348 348 345 344
316 305 304 300 289 294 303 302 303 304 305 301 305 313 313 316 315 312 308 313 311 316 318 322 326 330 333 333 333 333 331 337 341 346 347 346 347 347
4 2 341 332 330 313 301 301 303 305 306 300 303 306 305 307 309 308 310 311 310 309 310 309 315 317 325 329 331 329 331 333 338 346 347 346 347 353
348 345 331 329 331 328 319 309 308 304 302 300 299 299 298 300 303 306 307 307 305 304 305 302 304 306 316 322 327 325 328 327 335 343 347 343 348 350
307 308 322 323 321 316 307 306 304 304 306 304 304 299 297 298 302 304 308 309 307 309 311 307 306 304 307 317 322 323 322 323 331 340 344 344 346 350
293 287 294 300 299 295 299 300 297 299 293 295 293 295 297 298 301 302 305 303 306 304 313 310 321 298 299 311 314 318 318 316 324 335 342 340 343 346
275 277 282 285 286 288 292 292 297 306 299 300 293 296 298 296 304 306 300 297 297 302 316 313 315 310 294 300 305 310 309 310 318 328 337 339 338 343
280 286 287 286 286 285 288 291 300 297 298 300 299 301 302 301 299 295 288 292 309 308 303 317 310 307 301 293 297 304 302 305 312 322 333 338 335 339
280 283 286 287 288 289 290 294 296 297 296 296 296 298 299 298 300 291 302 306 295 299 308 300 310 294 300 282 291 300 294 301 306 318 329 334 331 335
284 285 287 289 290 292 293 293 293 294 292 294 295 296 296 293 295 293 293 294 299 296 300 285 307 277 267 271 292 288 293 300 303 314 324 329 329 332
286 286 287 288 291 292 292 293 292 293 292 293 296 294 293 288 289 284 281 284 285 297 303 310 296 279 265 276 285 283 290 296 299 309 318 326 326 327
287 288 288 288 288 290 291 293 293 293 295 297 296 293 292 287 283 281 281 279 292 297 297 312 298 267 261 272 274 279 291 295 295 306 313 321 322 324
283 284 285 286 287 290 292 292 290 291 293 292 291 290 290 288 283 281 277 267 288 288 297 299 279 271 265 272 268 279 289 293 295 302 309 315 317 321
285 284 284 286 288 290 292 294 294 292 291 291 291 289 288 285 280 277 278 282 276 290 303 284 277 250 265 272 277 282 286 289 292 301 306 310 314 317
284 286 290 294 295 295 296 296 298 296 294 286 286 286 285 282 275 269 260 264 284 281 295 288 252 252 275 279 282 276 283 287 290 296 302 307 311 316
284 288 291 294 296 297 299 302 301 301 300 298 295 290 285 281 269 261 246 263 278 293 282 284 250 268 276 273 271 271 278 281 285 295 300 303 312 315
289 292 296 296 293 298 301 302 304 304 298 301 301 286 290 266 280 246 248 269 279 284 270 251 243 259 269 270 265 269 275 279 285 293 299 304 308 311
292 294 292 294 296 298 302 306 307 304 309 307 290 282 272 268 261 247 281 254 277 254 239 240 253 267 273 278 268 271 275 280 287 294 297 302 305 307
Height
5946 5946 5945 5944 5942 5942 5941 5941 5940 5940 5940 5939 5939 5937 5935 5933 5930 5928 5926 5922 5919 5916 5914 5911 5907 5906 5902 5899 5894 5891 5888 5883 5879 5873 5869 5865 5861 5856
5944 5944 5944 5943 5942 5941 5940 5940 5941 5941 5939 5937 5937 5937 5935 5933 5930 5927 5923 5920 5917 5912 5907 5906 5904 5901 5898 5895 5892 5887 5884 5878 5872 5867 5862 5858 5855 5850
5941 5941 5941 5942 5942 5941 5940 5939 5938 5938 5938 5938 5935 5934 5934 5931 5929 5926 5925 5921 5915 5911 5905 5902 5901 5898 5895 5890 5886 5883 5879 5873 5866 5861 5856 5850 5846 5841
5939 5940 5939 5939 5939 5938 5938 5939 5938 5937 5935 5933 5935 5933 5931 5929 5926 5923 5920 5918 5913 5910 5905 5903 5899 5893 5891 5885 5881 5878 5873 5867 5862 5856 5851 5845 5837 5832
5937 5937 5937 5937 5938 5939 5938 5936 5936 5935 5933 5931 5929 5929 5928 5926 5922 5919 5916 5913 5912 5908 5904 5898 5895 5891 5886 5882 5876 5871 5866 5862 5857 5851 5845 5839 5831 5825
5934 5935 5936 5937 5936 5936 5935 5934 5934 5933 5930 5929 5926 5924 5924 5924 5920 5917 5914 5912 5907 5906 5902 5899 5895 5890 5883 5877 5872 5865 5859 5856 5850 5843 5836 5831 5825 5818
5934 5934 5934 5935 5935 5933 5932 5931 5931 5931 5930 5927 5924 5922 5918 5917 5917 5916 5913 5910 5905 5902 5898 5894 5892 5887 5882 5874 5869 5863 5859 5852 5846 5839 5833 5828 5821 5812
5931 5933 5933 5931 5931 5931 5929 5927 5926 5925 5925 5924 5921 5919 5915 5911 5909 5906 5903 5900 5896 5892 5890 5887 5886 5881 5876 5868 5863 5857 5852 5846 5841 5834 5830 5824 5817 5809
5929 5929 5929 5929 5928 5927 5925 5923 5921 5918 5917 5917 5916 5914 5910 5905 5902 5900 5897 5892 5888 5883 5878 5875 5871 5871 5869 5863 5857 5852 5845 5841 5835 5830 5824 5820 5812 5805
5925 5925 5925 5924 5923 5922 5920 5919 5917 5914 5912 5908 5906 5903 5900 5897 5895 5891 5887 5881 5877 5871 5867 5863 5861 5860 5859 5856 5850 5845 5840 5835 5830 5824 5818 5814 5807 5800
5919 5918 5918 5918 5917 5914 5912 5911 5909 5908 5905 5901 5898 5894 5891 5886 5884 5881 5876 5869 5865 5861 5854 5852 5849 5848 5847 5846 5843 5839 5835 5831 5825 5819 5813 5809 5802 5796
5910 5910 5910 5910 5908 5906 5903 5901 5901 5902 5897 5892 5889 5887 5885 5880 5874 5868 5862 5858 5854 5852 5846 5841 5838 5836 5835 5835 5834 5832 5829 5827 5821 5814 5808 5804 5798 5792
5902 5902 5901 5901 5900 5898 5895 5891 5893 5891 5888 5884 5881 5877 5874 5870 5866 5858 5849 5846 5846 5842 5837 5832 5825 5826 5823 5824 5824 5823 5821 5819 5814 5807 5802 5798 5793 5787
5894 5894 5892 5891 5889 5887 5884 5884 5882 5879 5875 5874 5871 5868 5862 5856 5851 5842 5841 5835 5834 5830 5822 5822 5818 5814 5814 5813 5814 5813 5812 5810 5807 5800 5795 5791 5788 5781
5883 5882 5880 5879 5876 5874 5873 5872 5869 5865 5861 5858 5857 5854 5852 5846 5837 5830 5825 5822 5819 5816 5812 5805 5807 5802 5803 5803 5804 5803 5801 5799 5798 5792 5788 5784 5781 5775
5871 5871 5868 5867 5865 5863 5859 5858 5855 5850 5846 5843 5840 5836 5835 5832 5823 5815 5798 5803 5803 5804 5800 5800 5795 5795 5795 5794 5795 5794 5792 5790 5788 5784 5780 5776 5773 5769
5861 5859 5857 5853 5850 5849 5845 5842 5840 5834 5829 5827 5820 5816 5815 5815 5811 5802 5790 5780 5790 5790 5790 5787 5786 5785 5785 5787 5785 5783 5782 5782 5780 5776 5773 5768 5766 5761
5850 5848 5844 5841 5837 5835 5831 5828 5826 5821 5814 5806 5799 5797 5794 5793 5791 5785 5780 5774 5773 5775 5777 5773 5773 5774 5776 5776 5775 5774 5773 5773 5771 5768 5764 5761 5757 5754
5834 5833 5832 5830 5826 5822 5817 5813 5808 5805 5799 5789 5781 5773 5772 5772 5773 5765 5759 5745 5760 5763 5764 5758 5761 5762 5765 5765 5766 5764 5764 5763 5762 5759 5758 5753 5750 5746
5818 5815 5813 5811 5809 5803 5799 5794 5789 5785 5779 5771 5763 5756 5748 5744 5746 5746 5750 5741 5738 5750 5751 5748 5749 5753 5755 5755 5753 5755 5755 5755 5754 5751 5749 5746 5742 5738
5806 5803 5799 5795 5791 5787 5782 5777 5771 5767 5761 5753 5744 5733 5722 5710 5706 5716 5713 5730 5730 5736 5739 5742 5742 5744 5747 5747 5746 5746 5746 5747 5746 5743 5741 5738 5734 5729
5791 5787 5784 5779 5775 5771 5767 5761 5757 5752 5745 5735 5724 5714 5709 5700 5702 5688 5712 5712 5725 5724 5729 5732 5736 5736 5738 5738 5738 5738 5739 5739 5737 5735 5732 5730 5727 5722
5774 5771 5768 5765 5760 5755 5751 5747 5744 5737 5730 5719 5707 5694 5695 5686 5686 5690 5702 5709 5713 5714 5718 5723 5726 5727 5728 5728 5728 5727 5729 5729 5728 5726 5725 5723 5720 5716